Regional Weather Roundup
Issued by NWS

Home | Current Version | Previous Version | Graphics & Text | Print | Product List | Glossary On
Versions: 1 2 3 4 5 6 7 8 9 10 11 12 13 14 15 16 17 18 19 20 21 22 23 24 25 26 27 28 29 30 31 32 33 34 35 36 37 38 39 40 41 42 43 44 45 46 47 48 49 50
000
ASUS43 KLOT 291203
RWRIL

ILLINOIS REGIONAL WEATHER ROUNDUP
NATIONAL WEATHER SERVICE CHICAGO/ROMEOVILLE IL
700 AM CDT FRI APR 29 2016

NOTE: "FAIR" INDICATES FEW OR NO CLOUDS BELOW 12,000 FEET WITH NO
SIGNIFICANT WEATHER AND/OR OBSTRUCTIONS TO VISIBILITY.

* THESE STATIONS ARE NOT UNDER NWS QUALITY CONTROL. THEY ALSO MAY NOT
  REPORT WEATHER SUCH AS PRECIPITATION OR FOG.

ILZ001-002-007-009-015-016-024-291300-
NORTHWEST ILLINOIS

CITY           SKY/WX    TMP DP  RH WIND       PRES   REMARKS
MOLINE         CLOUDY    46  42  86 N9        30.08F FOG
6HR MIN TEMP:  45; 6HR MAX TEMP:  51;

STERLING*      CLOUDY    43  39  87 N7        30.11S
$$

ILZ003-004-008-010-011-017-018-291300-
NORTH CENTRAL ILLINOIS

CITY           SKY/WX    TMP DP  RH WIND       PRES   REMARKS
ROCKFORD       CLOUDY    43  39  86 N6        30.12R
6HR MIN TEMP:  42; 6HR MAX TEMP:  43; 6HR PCP:  0.01;

FREEPORT*      CLOUDY    40  38  93 NW7       30.12R
ROCHELLE*      CLOUDY    41  39  94 N9        30.10S FOG
DE KALB*       CLOUDY    42  40  95 NW8       30.09S FOG
$$

ILZ005-006-012>014-019>023-291300-
NORTHEAST ILLINOIS

CITY           SKY/WX    TMP DP  RH WIND       PRES   REMARKS
CHICAGO-OHARE  CLOUDY    42  41  96 N12       30.08R FOG
6HR MIN TEMP:  42; 6HR MAX TEMP:  43; 6HR PCP:  0.01;

CHICAGO-MIDWAY CLOUDY    45  41  86 NW10      30.08R FOG
6HR MIN TEMP:  44; 6HR MAX TEMP:  45; 6HR PCP: TRACE;

AURORA         CLOUDY    44  41  89 NW10      30.09R FOG
6HR MIN TEMP:  43; 6HR MAX TEMP:  45;

LANSING*       CLOUDY    45  42  91 W5        30.08R FOG
WAUKEGAN       CLOUDY    41  39  93 N6        30.08R
6HR MIN TEMP:  40; 6HR MAX TEMP:  41; 6HR PCP:  0.01;

DUPAGE AIRPORT CLOUDY    43  39  86 NW8       30.08R
6HR MIN TEMP:  43; 6HR MAX TEMP:  43; 6HR PCP:  0.01;

WHEELING       CLOUDY    41  40  96 N6        30.10R FOG
6HR MIN TEMP:  41; 6HR MAX TEMP:  42; 6HR PCP:  0.01;

MORRIS*        CLOUDY    44  42  90 NW6       30.07F FOG
NORTHERLY ISL    N/A     43  40  89 NW9         N/A
NORTHERLY ISL    N/A     43  40  89 NW9         N/A
$$

LMZ740>746-291300-
SOUTHERN LAKE MICHIGAN

STATION/POSITION SKY/WX   TEMP    WIND        PRES    VSBY  WAVE
                          AIR SEA DIR/SP/G                  HT/PER
                          (F)     (DEG/KT/KT) (MB)    (MI)  (FT/S)
SOUTHERN BUOY              40 40   60/  8/ 10 1017.2          1/ 3
BURNHAM HARBOR             43     330/  8/  9   N/A
CALUMET HARBOR             44     290/  6/  8 1017.0R
BURNS HARBOR               43     310/ 13/ 16 1018.3R
ST. JOSEPH                 45 47  240/ 10/ 10   N/A           1/ 5
$$

ILZ025>027-034>036-040-047-049-050-058-095>099-291300-
WEST-CENTRAL ILLINOIS

CITY           SKY/WX    TMP DP  RH WIND       PRES   REMARKS
QUINCY         CLOUDY    50  48  93 NE13      30.01F
MACOMB*        CLOUDY    48  47  97 N15       30.08S FOG
PITTSFIELD*    MOCLDY    49  47  93 N7        30.03F
$$

ILZ028>032-037-038-041>044-048-051>054-059>061-291300-
CENTRAL ILLINOIS

CITY           SKY/WX    TMP DP  RH WIND       PRES   REMARKS
BLOOMINGTON    CLOUDY    49  49 100 N12       30.05F FOG
DECATUR        SUNNY     53  48  83 NW7       30.03F
PEORIA         CLOUDY    48  45  89 NE9       30.06S FOG
6HR MIN TEMP:  48; 6HR MAX TEMP:  54;

LINCOLN*       CLOUDY    51  49  95 N3        30.04S
SPRINGFIELD    MOSUNNY   50  48  93 CALM      30.05S
6HR MIN TEMP:  48; 6HR MAX TEMP:  55;

TAYLORVILLE    NOT AVBL
$$

ILZ033-039-045-046-055>057-062-063-291300-
EAST-CENTRAL ILLINOIS

CITY           SKY/WX    TMP DP  RH WIND       PRES   REMARKS
CHAMPAIGN      SUNNY     48  47  96 N3        30.04F FOG
$$

ILZ079-100>102-291300-
SOUTHWEST ILLINOIS

CITY           SKY/WX    TMP DP  RH WIND       PRES   REMARKS
ALTON          CLEAR     51  47  87 CALM      30.04F
BELLEVILLE     CLEAR     54  52  94 N3        30.03S
CAHOKIA*       CLEAR     55  50  83 NE5       30.03F
SPARTA*        CLEAR     52  50  90 CALM      30.04S
$$

ILZ064>066-069>071-074>076-080>082-084>086-088>090-092>094-291300-
SOUTH-CENTRAL ILLINOIS

CITY           SKY/WX    TMP DP  RH WIND       PRES   REMARKS
CARBONDALE     SUNNY     52  49  89 NE5       30.02F
6HR MIN TEMP:  50; 6HR MAX TEMP:  57;

CAIRO*         CLEAR     56  52  85 NE9       30.01S
EFFINGHAM*     SUNNY     50  50 100 CALM      30.06S FOG
MT. VERNON     SUNNY     50  45  81 CALM      30.05S
SALEM*         SUNNY     54  50  89 N3        30.04F
$$

ILZ067-068-072-073-078-083-087-091-291300-
SOUTHEAST ILLINOIS

CITY           SKY/WX    TMP DP  RH WIND       PRES   REMARKS
LAWRENCEVILLE  MOSUNNY   54  52  93 CALM      30.05F
FLORA*         CLOUDY    53  51  93 CALM      30.04F
HARRISBURG*    SUNNY     55  51  88 CALM      30.05R
ROBINSON*      SUNNY     47  47 100 CALM      30.06F
$$

ABBREVIATIONS USED IN REMARKS
   TC - TEMPERATURE IN CELSIUS
  WCI - WIND CHILL INDEX
   HX - HEAT INDEX
  VSB - VISIBILITY
$$





USA.gov is the U.S. government's official web portal to all federal, state and local government web resources and services.